OneWeb SL0247

operational
NORAD ID: 48777 Int'l Des: 2021-045 Owner: ONEWEBN Country: UK Constellation: oneweb
LEOCIRCULARPOLARONEWEB_TYPE

关于 OneWeb SL0247

正在加载描述...

实时位置

正在加载3D地球...

即将过境

高度历史

Altitude vs Time

uPlot chart will show altitude changes over time

两行轨道根数

1 48777U 21045L 26037.10052262 -.00000098 00000-0 -29354-3 0 9996
2 48777 87.8984 285.3899 0000655 70.3963 289.7238 13.15550055227175
Epoch: Feb 6, 2026 • Age: 8 hours

当前状态

高度 1205.0 km
速度 7.25 km/s
星下点 27.20°N, 170.35°E
发射日期 May 28, 2021
运行时间 4.6 years
类型 internet

技术详情

分类 Payload
质量 148.00 kg
干质量 140.00 kg
总质量 148.00 kg
长度 1.30 m
直径 1.00 m
跨度 5.00 m
形状 Trapezoid+2 pan
制造商 ONEWUS
平台类型 ARROW
阶段状态 In Orbit
所有者/国家 ONEWEBN/UK

大型星座

Loading constellations...